KD5UIG Weather Reports


Display with metric or nautical units.
time (UTC)temp
F
wind
direction
speed
MPH
gust
MPH
rain 1hr
in
rain 24hr
in
rain mn
in
humidity
%
barometer
mb
20260902131057 81 0 0.0 3.0 0.00 0.00 0.00 72 1016.3
20260902130557 81 169 0.0 1.0 0.00 0.00 0.00 73 1016.2
20260902125556 80 0 0.0 0.0 0.00 0.00 0.00 74 1016.1
20260902125058 79 0 0.0 0.0 0.00 0.00 0.00 74 1016.1
20260902124606 79 0 0.0 0.0 0.00 0.00 0.00 74 1016.0
20260902124057 79 0 0.0 0.0 0.00 0.00 0.00 74 1016.0
20260902123556 79 0 0.0 0.0 0.00 0.00 0.00 73 1016.0
20260902123118 79 0 0.0 0.0 0.00 0.00 0.00 73 1015.9
20260902122555 79 0 0.0 0.0 0.00 0.00 0.00 73 1015.8
20260902122055 79 0 0.0 0.0 0.00 0.00 0.00 73 1015.7
20260902121606 79 0 0.0 0.0 0.00 0.00 0.00 72 1015.7
20260902121054 79 0 0.0 0.0 0.00 0.00 0.00 72 1015.7
20260902120555 79 0 0.0 0.0 0.00 0.00 0.00 72 1015.7
20260902120104 79 0 0.0 0.0 0.00 0.00 0.00 72 1015.6
20260902115554 79 0 0.0 0.0 0.00 0.00 0.00 72 1015.7
20260902115057 79 0 0.0 1.0 0.00 0.00 0.00 72 1015.7
20260902114606 79 0 0.0 1.0 0.00 0.00 0.00 72 1015.7
20260902114055 79 0 0.0 2.0 0.00 0.00 0.00 72 1015.7
20260902113554 79 0 0.0 2.0 0.00 0.00 0.00 72 1015.7
20260902113114 79 0 0.0 1.0 0.00 0.00 0.00 72 1015.7
20260902112554 79 0 0.0 1.0 0.00 0.00 0.00 71 1015.6
20260902112054 79 0 0.0 1.0 0.00 0.00 0.00 71 1015.7
20260902111603 79 0 0.0 2.0 0.00 0.00 0.00 71 1015.6
20260902111054 79 0 0.0 2.0 0.00 0.00 0.00 71 1015.7
20260902110558 80 0 0.0 2.0 0.00 0.00 0.00 71 1015.7
20260902110105 80 0 0.0 1.0 0.00 0.00 0.00 70 1015.6
20260902105557 80 180 0.0 0.0 0.00 0.00 0.00 70 1015.5
20260902105056 80 0 0.0 2.0 0.00 0.00 0.00 70 1015.5
20260902104602 80 0 0.0 2.0 0.00 0.00 0.00 70 1015.5
20260902104054 80 0 0.0 1.0 0.00 0.00 0.00 70 1015.5
20260902103554 80 0 0.0 1.0 0.00 0.00 0.00 70 1015.4
20260902103104 80 0 0.0 3.0 0.00 0.00 0.00 70 1015.4
20260902102556 80 0 0.0 3.0 0.00 0.00 0.00 70 1015.5
20260902102055 80 0 0.0 3.0 0.00 0.00 0.00 70 1015.6
20260902101620 80 183 0.0 1.0 0.00 0.00 0.00 69 1015.5
20260902101054 80 0 0.0 1.0 0.00 0.00 0.00 69 1015.5
20260902100555 81 0 0.0 1.0 0.00 0.00 0.00 69 1015.6
20260902095558 81 183 0.0 1.0 0.00 0.00 0.00 69 1015.5
20260902095054 81 0 0.0 1.0 0.00 0.00 0.00 69 1015.5
20260902094605 81 0 0.0 1.0 0.00 0.00 0.00 69 1015.5
20260902094054 81 0 0.0 1.0 0.00 0.00 0.00 69 1015.6
20260902093554 81 0 0.0 1.0 0.00 0.00 0.00 68 1015.5
20260902093101 81 0 0.0 1.0 0.00 0.00 0.00 68 1015.5
20260902092555 81 0 0.0 1.0 0.00 0.00 0.00 68 1015.6
20260902092055 82 0 0.0 1.0 0.00 0.00 0.00 68 1015.7
20260902091605 82 0 0.0 1.0 0.00 0.00 0.00 67 1015.7
20260902091055 82 0 0.0 1.0 0.00 0.00 0.00 67 1015.7
20260902090558 82 0 0.0 1.0 0.00 0.00 0.00 67 1015.7
20260902090128 82 0 0.0 1.0 0.00 0.00 0.00 67 1015.7
20260902085559 82 0 0.0 2.0 0.00 0.00 0.00 67 1015.6
20260902085055 82 0 0.0 2.0 0.00 0.00 0.00 67 1015.6
20260902084604 82 0 0.0 2.0 0.00 0.00 0.00 67 1015.6
20260902084056 82 0 0.0 2.0 0.00 0.00 0.00 67 1015.6
20260902083555 82 0 0.0 2.0 0.00 0.00 0.00 66 1015.6
20260902083110 82 0 0.0 2.0 0.00 0.00 0.00 66 1015.6
20260902082555 83 0 0.0 2.0 0.00 0.00 0.00 66 1015.7
20260902082056 83 198 0.0 2.0 0.00 0.00 0.00 66 1015.6
20260902081608 83 198 0.0 2.0 0.00 0.00 0.00 65 1015.7
20260902081055 83 0 0.0 3.0 0.00 0.00 0.00 65 1015.6
20260902080555 83 0 0.0 5.0 0.00 0.00 0.00 65 1015.6
20260902080110 83 0 0.0 5.0 0.00 0.00 0.00 65 1015.5
20260902075554 83 196 0.0 4.0 0.00 0.00 0.00 64 1015.6
20260902075054 84 198 0.0 3.0 0.00 0.00 0.00 64 1015.7
20260902074601 84 201 0.0 3.0 0.00 0.00 0.00 64 1015.8
20260902074059 84 201 0.0 3.0 0.00 0.00 0.00 64 1015.6
20260902073555 84 0 0.0 3.0 0.00 0.00 0.00 64 1015.6
20260902073101 84 0 0.0 3.0 0.00 0.00 0.00 63 1015.6
20260902072555 84 0 0.0 3.0 0.00 0.00 0.00 63 1015.6
20260902072055 85 0 0.0 4.0 0.00 0.00 0.00 63 1015.6
20260902071605 85 199 0.0 4.0 0.00 0.00 0.00 63 1015.6
20260902071055 85 204 0.0 4.0 0.00 0.00 0.00 63 1015.7
20260902070555 85 163 0.0 3.0 0.00 0.00 0.00 63 1015.6
20260902070105 85 202 0.0 3.0 0.00 0.00 0.00 62 1015.6
20260902065554 85 0 0.0 5.0 0.00 0.00 0.00 62 1015.6
20260902065058 85 117 1.0 5.0 0.00 0.00 0.00 62 1015.6
20260902064607 85 201 1.0 5.0 0.00 0.00 0.00 62 1015.6
20260902064055 85 200 0.0 6.0 0.00 0.00 0.00 62 1015.6
20260902063555 85 192 1.0 6.0 0.00 0.00 0.00 62 1015.5
20260902063102 85 164 1.0 5.0 0.00 0.00 0.00 61 1015.5
20260902062558 85 201 0.0 2.0 0.00 0.00 0.00 60 1015.5
20260902062056 86 0 0.0 4.0 0.00 0.00 0.00 60 1015.4
20260902061623 86 0 0.0 4.0 0.00 0.00 0.00 59 1015.3
20260902061056 86 201 1.0 4.0 0.00 0.00 0.00 59 1015.3
20260902060556 86 0 1.0 3.0 0.00 0.00 0.00 59 1015.3
20260902060109 87 0 0.0 3.0 0.00 0.00 0.00 58 1015.2
20260902055558 87 0 1.0 3.0 0.00 0.00 0.00 58 1015.2
20260902055058 87 123 0.0 3.0 0.00 0.00 0.00 58 1015.1
20260902054605 87 175 0.0 4.0 0.00 0.00 0.00 58 1015.0
20260902054056 87 160 0.0 5.0 0.00 0.00 0.00 57 1015.0
20260902053600 87 219 0.0 5.0 0.00 0.00 0.00 57 1015.0
20260902053105 87 157 1.0 5.0 0.00 0.00 0.00 57 1015.0
20260902052556 87 164 1.0 5.0 0.00 0.00 0.00 56 1014.9
20260902052056 87 97 0.0 4.0 0.00 0.00 0.00 56 1014.9
20260902051600 87 0 0.0 1.0 0.00 0.00 0.00 56 1014.9
20260902051056 88 0 0.0 2.0 0.00 0.00 0.00 56 1014.8
20260902050559 88 0 0.0 2.0 0.00 0.00 0.00 55 1014.7
20260902050107 88 0 0.0 2.0 0.00 0.00 0.00 55 1014.6
20260902045601 88 0 0.0 0.0 0.00 0.00 0.00 55 1014.6
20260902045057 88 0 0.0 1.0 0.00 0.00 0.00 55 1014.7
20260902044610 88 0 0.0 1.0 0.00 0.00 0.00 54 1014.7
20260902044057 88 0 0.0 1.0 0.00 0.00 0.00 54 1014.7
20260902043555 88 0 0.0 1.0 0.00 0.00 0.00 54 1014.7
20260902043106 88 154 0.0 1.0 0.00 0.00 0.00 53 1014.6
20260902042556 89 0 0.0 1.0 0.00 0.00 0.00 53 1014.6
20260902042057 89 0 0.0 1.0 0.00 0.00 0.00 53 1014.5
20260902041608 89 0 0.0 2.0 0.00 0.00 0.00 53 1014.6
20260902041057 89 0 0.0 2.0 0.00 0.00 0.00 53 1014.5
20260902040557 89 0 0.0 2.0 0.00 0.00 0.00 53 1014.6
20260902040107 89 0 0.0 2.0 0.00 0.00 0.00 53 1014.8
20260902035557 89 0 0.0 1.0 0.00 0.00 0.00 53 1014.9
20260902035059 89 0 0.0 1.0 0.00 0.00 0.00 52 1014.8
20260902034602 89 0 0.0 1.0 0.00 0.00 0.00 52 1014.8
20260902034056 89 155 0.0 1.0 0.00 0.00 0.00 52 1014.7
20260902033556 89 0 0.0 1.0 0.00 0.00 0.00 52 1014.6
20260902033113 89 0 0.0 1.0 0.00 0.00 0.00 51 1014.6
20260902032557 90 0 0.0 1.0 0.00 0.00 0.00 51 1014.6
20260902032055 90 0 0.0 1.0 0.00 0.00 0.00 51 1014.5
20260902031605 90 155 0.0 0.0 0.00 0.00 0.00 50 1014.5
20260902031054 90 0 0.0 0.0 0.00 0.00 0.00 50 1014.6
20260902030557 90 0 0.0 0.0 0.00 0.00 0.00 50 1014.5
20260902030118 90 0 0.0 0.0 0.00 0.00 0.00 50 1014.6
20260902025555 91 0 0.0 0.0 0.00 0.00 0.00 49 1014.4
20260902025055 91 0 0.0 1.0 0.00 0.00 0.00 49 1014.3
20260902024602 91 0 0.0 2.0 0.00 0.00 0.00 49 1014.2
20260902024054 91 0 0.0 2.0 0.00 0.00 0.00 49 1014.2
20260902023554 91 0 0.0 3.0 0.00 0.00 0.00 48 1014.1
20260902023112 91 0 0.0 3.0 0.00 0.00 0.00 48 1014.2
20260902022555 91 0 0.0 3.0 0.00 0.00 0.00 48 1014.0
20260902022055 92 0 0.0 3.0 0.00 0.00 0.00 48 1013.9
20260902021619 92 0 0.0 3.0 0.00 0.00 0.00 47 1013.9
20260902021055 92 128 0.0 2.0 0.00 0.00 0.00 47 1013.7
20260902020555 92 128 0.0 3.0 0.00 0.00 0.00 47 1013.7
20260902020103 92 126 0.0 3.0 0.00 0.00 0.00 47 1013.6
20260902015555 92 117 0.0 3.0 0.00 0.00 0.00 47 1013.5
20260902015055 93 0 0.0 3.0 0.00 0.00 0.00 46 1013.5
20260902014600 93 0 0.0 3.0 0.00 0.00 0.00 46 1013.4
20260902014054 93 117 0.0 3.0 0.00 0.00 0.00 46 1013.4
20260902013555 93 0 0.0 3.0 0.00 0.00 0.00 46 1013.3
20260902013100 93 107 0.0 3.0 0.00 0.00 0.00 45 1013.2
20260902012554 94 0 0.0 3.0 0.00 0.00 0.00 45 1013.1
20260902012054 94 0 0.0 3.0 0.00 0.00 0.00 44 1013.1
20260902011601 95 0 0.0 3.0 0.00 0.00 0.00 44 1013.1
20260902011055 95 0 0.0 2.0 0.00 0.00 0.00 43 1013.2
20260902010554 96 121 0.0 2.0 0.00 0.00 0.00 42 1013.1
20260902010105 96 0 0.0 2.0 0.00 0.00 0.00 41 1013.1
20260902005554 96 123 0.0 3.0 0.00 0.00 0.00 41 1013.0
20260902005055 97 121 1.0 3.0 0.00 0.00 0.00 40 1013.1
20260902004610 97 113 0.0 3.0 0.00 0.00 0.00 39 1013.0
20260902004055 97 113 0.0 3.0 0.00 0.00 0.00 39 1012.9
20260902003555 98 110 1.0 3.0 0.00 0.00 0.00 39 1013.0
20260902003106 98 0 1.0 3.0 0.00 0.00 0.00 39 1013.0
20260902002556 98 112 1.0 4.0 0.00 0.00 0.00 38 1013.1
20260902002054 98 0 0.0 4.0 0.00 0.00 0.00 38 1013.2
20260902001601 99 0 1.0 8.0 0.00 0.00 0.00 38 1013.3
20260902001054 99 82 0.0 8.0 0.00 0.00 0.00 38 1013.4
20260902000554 99 133 1.0 8.0 0.00 0.00 0.00 38 1013.4
20260902000106 100 94 1.0 6.0 0.00 0.00 0.00 38 1013.3
20260901235555 100 128 0.0 5.0 0.00 0.00 0.00 38 1013.4
20260901235054 100 184 1.0 7.0 0.00 0.00 0.00 38 1013.4
20260901234616 100 80 2.0 7.0 0.00 0.00 0.00 37 1013.4
20260901234052 100 0 1.0 9.0 0.00 0.00 0.00 36 1013.4
20260901233555 101 102 1.0 9.0 0.00 0.00 0.00 36 1013.5
20260901233104 101 117 1.0 9.0 0.00 0.00 0.00 36 1013.5
20260901232555 101 55 1.0 7.0 0.00 0.00 0.00 36 1013.6
20260901232058 101 133 1.0 7.0 0.00 0.00 0.00 36 1013.7
20260901231559 101 65 1.0 7.0 0.00 0.00 0.00 36 1013.6
20260901231054 101 91 2.0 7.0 0.00 0.00 0.00 35 1013.6
20260901230554 102 135 2.0 7.0 0.00 0.00 0.00 35 1013.6
20260901230139 102 144 2.0 7.0 0.00 0.00 0.00 36 1013.6
20260901225557 102 86 1.0 8.0 0.00 0.00 0.00 35 1013.6
20260901225054 102 77 3.0 8.0 0.00 0.00 0.00 34 1013.6
20260901224605 102 65 1.0 8.0 0.00 0.00 0.00 34 1013.6
20260901224055 102 72 2.0 7.0 0.00 0.00 0.00 35 1013.6
20260901223555 103 79 1.0 12.0 0.00 0.00 0.00 35 1013.6
20260901223113 103 84 4.0 12.0 0.00 0.00 0.00 34 1013.6
20260901222555 103 104 3.0 9.0 0.00 0.00 0.00 34 1013.7
20260901222054 104 147 2.0 7.0 0.00 0.00 0.00 34 1013.7
20260901221604 104 124 1.0 9.0 0.00 0.00 0.00 34 1013.7
20260901221055 104 178 1.0 9.0 0.00 0.00 0.00 33 1013.7
20260901220555 104 212 1.0 7.0 0.00 0.00 0.00 34 1013.8
20260901220108 104 56 2.0 7.0 0.00 0.00 0.00 34 1013.8
20260901215554 104 90 1.0 6.0 0.00 0.00 0.00 34 1013.9
20260901215055 104 215 1.0 6.0 0.00 0.00 0.00 35 1014.0
20260901214603 104 77 2.0 6.0 0.00 0.00 0.00 35 1014.1
20260901214054 103 119 1.0 6.0 0.00 0.00 0.00 35 1014.0
20260901213557 103 138 1.0 6.0 0.00 0.00 0.00 35 1014.0
20260901213107 103 136 1.0 7.0 0.00 0.00 0.00 35 1014.0
20260901212554 103 99 1.0 9.0 0.00 0.00 0.00 36 1013.9
20260901212055 103 19 3.0 11.0 0.00 0.00 0.00 35 1014.1
20260901211605 103 72 4.0 11.0 0.00 0.00 0.00 35 1014.2
20260901211056 103 55 2.0 8.0 0.00 0.00 0.00 35 1014.2
20260901210555 103 87 3.0 8.0 0.00 0.00 0.00 36 1014.4
20260901210105 103 84 2.0 8.0 0.00 0.00 0.00 36 1014.4
20260901205557 102 142 1.0 7.0 0.00 0.00 0.00 37 1014.4
20260901205054 102 193 2.0 8.0 0.00 0.00 0.00 37 1014.4
20260901204603 102 64 2.0 8.0 0.00 0.00 0.00 38 1014.5
20260901204055 102 205 2.0 8.0 0.00 0.00 0.00 37 1014.6
20260901203555 102 153 2.0 9.0 0.00 0.00 0.00 37 1014.6
20260901203120 102 35 2.0 9.0 0.00 0.00 0.00 38 1014.5
20260901202557 102 68 2.0 9.0 0.00 0.00 0.00 38 1014.6
20260901202055 102 69 3.0 7.0 0.00 0.00 0.00 38 1014.6
20260901201612 102 82 2.0 7.0 0.00 0.00 0.00 39 1014.8
20260901201055 102 74 2.0 7.0 0.00 0.00 0.00 38 1014.9
20260901200555 102 126 2.0 8.0 0.00 0.00 0.00 37 1014.9
20260901200107 102 31 3.0 13.0 0.00 0.00 0.00 37 1015.0
20260901195556 103 88 2.0 13.0 0.00 0.00 0.00 37 1015.1
20260901195056 103 49 2.0 9.0 0.00 0.00 0.00 37 1015.0
20260901194607 103 71 3.0 9.0 0.00 0.00 0.00 37 1015.2
20260901194055 103 97 2.0 8.0 0.00 0.00 0.00 37 1015.2
20260901193555 103 61 1.0 7.0 0.00 0.00 0.00 37 1015.2
20260901193106 103 99 2.0 7.0 0.00 0.00 0.00 37 1015.4
20260901192556 103 99 2.0 8.0 0.00 0.00 0.00 38 1015.4
20260901192056 103 51 2.0 8.0 0.00 0.00 0.00 38 1015.4
20260901191609 103 0 2.0 6.0 0.00 0.00 0.00 37 1015.5
20260901191054 103 81 1.0 9.0 0.00 0.00 0.00 38 1015.5
20260901190555 102 125 2.0 9.0 0.00 0.00 0.00 38 1015.7
20260901190111 102 80 3.0 9.0 0.00 0.00 0.00 39 1015.6
20260901185555 103 64 2.0 9.0 0.00 0.00 0.00 37 1015.7
20260901185058 103 267 1.0 8.0 0.00 0.00 0.00 39 1015.7
20260901184603 103 99 3.0 8.0 0.00 0.00 0.00 38 1015.9
20260901184055 102 86 2.0 9.0 0.00 0.00 0.00 39 1016.0
20260901183558 102 171 2.0 9.0 0.00 0.00 0.00 38 1016.1
20260901183110 102 205 2.0 9.0 0.00 0.00 0.00 38 1016.1
20260901182555 102 77 2.0 7.0 0.00 0.00 0.00 39 1016.2
20260901182055 102 121 1.0 10.0 0.00 0.00 0.00 39 1016.3
20260901181604 102 96 3.0 10.0 0.00 0.00 0.00 39 1016.3
20260901181054 103 124 2.0 8.0 0.00 0.00 0.00 40 1016.3
20260901180555 103 129 2.0 8.0 0.00 0.00 0.00 39 1016.6
20260901180107 103 57 1.0 5.0 0.00 0.00 0.00 39 1016.6
20260901175557 102 0 1.0 10.0 0.00 0.00 0.00 39 1016.7
20260901175055 102 110 2.0 11.0 0.00 0.00 0.00 40 1016.7
20260901174604 101 104 3.0 11.0 0.00 0.00 0.00 40 1016.7
20260901174055 101 211 4.0 9.0 0.00 0.00 0.00 41 1016.8
20260901173555 101 253 1.0 8.0 0.00 0.00 0.00 42 1016.9
20260901173116 101 75 2.0 8.0 0.00 0.00 0.00 42 1017.0
20260901172555 100 0 1.0 7.0 0.00 0.00 0.00 42 1017.1
20260901172055 100 178 2.0 7.0 0.00 0.00 0.00 43 1017.3
20260901171620 100 192 2.0 11.0 0.00 0.00 0.00 42 1017.2
20260901171057 100 108 1.0 11.0 0.00 0.00 0.00 43 1017.3
20260901170556 100 238 2.0 5.0 0.00 0.00 0.00 43 1017.5
20260901170108 100 96 1.0 4.0 0.00 0.00 0.00 42 1017.5
20260901165555 100 156 1.0 8.0 0.00 0.00 0.00 42 1017.5
20260901165055 100 0 1.0 8.0 0.00 0.00 0.00 43 1017.6
20260901164635 100 215 1.0 3.0 0.00 0.00 0.00 44 1017.6
20260901164055 100 0 0.0 7.0 0.00 0.00 0.00 43 1017.7
20260901163555 100 140 1.0 7.0 0.00 0.00 0.00 44 1017.7
20260901163104 100 166 1.0 5.0 0.00 0.00 0.00 44 1017.6
20260901162557 99 190 1.0 4.0 0.00 0.00 0.00 43 1017.7
20260901162055 99 206 1.0 8.0 0.00 0.00 0.00 44 1017.7
20260901161625 99 0 3.0 8.0 0.00 0.00 0.00 44 1017.7
20260901161055 99 182 2.0 7.0 0.00 0.00 0.00 44 1017.6
20260901160555 99 186 3.0 7.0 0.00 0.00 0.00 44 1017.6
20260901160105 99 255 1.0 7.0 0.00 0.00 0.00 46 1017.6
20260901155554 98 189 2.0 7.0 0.00 0.00 0.00 46 1017.6
20260901155055 98 199 1.0 7.0 0.00 0.00 0.00 46 1017.6
20260901154605 98 0 0.0 8.0 0.00 0.00 0.00 48 1017.5
20260901154055 97 190 1.0 8.0 0.00 0.00 0.00 48 1017.5
20260901153554 97 143 1.0 5.0 0.00 0.00 0.00 49 1017.5
20260901153103 96 90 1.0 5.0 0.00 0.00 0.00 48 1017.5
20260901152554 96 0 1.0 6.0 0.00 0.00 0.00 50 1017.5
20260901152055 96 0 1.0 6.0 0.00 0.00 0.00 50 1017.5
20260901151605 95 202 1.0 5.0 0.00 0.00 0.00 50 1017.5
20260901151055 95 196 1.0 7.0 0.00 0.00 0.00 51 1017.5
20260901150556 94 196 2.0 7.0 0.00 0.00 0.00 52 1017.5
20260901150105 94 0 1.0 4.0 0.00 0.00 0.00 53 1017.5
20260901145555 93 112 0.0 4.0 0.00 0.00 0.00 54 1017.5
20260901145055 92 161 0.0 7.0 0.00 0.00 0.00 55 1017.5
20260901144606 92 159 1.0 7.0 0.00 0.00 0.00 55 1017.6
20260901144055 91 202 1.0 6.0 0.00 0.00 0.00 56 1017.6
20260901143555 91 0 1.0 7.0 0.00 0.00 0.00 57 1017.6